Location: Molveno
(46.1500°N, 10.9667°E)
Time: 01:35:56
(UTC+00:00)

Helios 1B rocket - Pass Details

Date: 05 July 2020
Orbit: 574 x 584 km, 98.1° (Epoch: 11 August)

Event Time Altitude Azimuth Distance (km) Brightness Sun altitude
Rises 23:49:03 0° 14° (NNE) 2,814 7.5 -20.9°
Reaches altitude 10° 23:51:14 10° 15° (NNE) 1,908 6.2 -20.8°
Maximum altitude 23:55:22 81° 104° (ESE) 593 2.3 -20.7°
Enters shadow 23:56:02 61° 177° (S) 660 2.3 -20.7°
